Year,Month,Day,Hour,Minute,Value (Times are PST for temperature in C)
2017,04,22,00,00,8.30
2017,04,22,00,01,8.30
2017,04,22,00,02,8.30
2017,04,22,00,03,8.30
2017,04,22,00,04,8.30
2017,04,22,00,05,8.30
2017,04,22,00,06,8.30
2017,04,22,00,07,8.30
2017,04,22,00,08,8.30
2017,04,22,00,09,8.30
2017,04,22,00,10,8.30
2017,04,22,00,11,8.30
2017,04,22,00,12,8.30
2017,04,22,00,13,8.30
2017,04,22,00,14,8.30
2017,04,22,00,15,8.30
2017,04,22,00,16,8.30
2017,04,22,00,17,8.30
2017,04,22,00,18,8.30
2017,04,22,00,19,8.40
2017,04,22,00,20,8.40
2017,04,22,00,21,8.50
2017,04,22,00,22,8.60
2017,04,22,00,23,8.70
2017,04,22,00,24,8.80
2017,04,22,00,25,8.80
2017,04,22,00,26,8.80
2017,04,22,00,27,8.80
2017,04,22,00,28,8.80
2017,04,22,00,29,8.70
2017,04,22,00,30,8.70
2017,04,22,00,31,8.60
2017,04,22,00,32,8.60
2017,04,22,00,33,8.60
2017,04,22,00,34,8.60
2017,04,22,00,35,8.50
2017,04,22,00,36,8.50
2017,04,22,00,37,8.50
2017,04,22,00,38,8.50
2017,04,22,00,39,8.40
2017,04,22,00,40,8.40
2017,04,22,00,41,8.40
2017,04,22,00,42,8.40
2017,04,22,00,43,8.40
2017,04,22,00,44,8.40
2017,04,22,00,45,8.40
2017,04,22,00,46,8.40
2017,04,22,00,47,8.30
2017,04,22,00,48,8.30
2017,04,22,00,49,8.30
2017,04,22,00,50,8.30
2017,04,22,00,51,8.30
2017,04,22,00,52,8.30
2017,04,22,00,53,8.30
2017,04,22,00,54,8.30
2017,04,22,00,55,8.30
2017,04,22,00,56,8.30
2017,04,22,00,57,8.30
2017,04,22,00,58,8.30
2017,04,22,00,59,8.40
2017,04,22,01,00,8.40
2017,04,22,01,01,8.40
2017,04,22,01,02,8.50
2017,04,22,01,03,8.60
2017,04,22,01,04,8.70
2017,04,22,01,05,8.70
2017,04,22,01,06,8.70
2017,04,22,01,07,8.70
2017,04,22,01,08,8.70
2017,04,22,01,09,8.70
2017,04,22,01,10,8.80
2017,04,22,01,11,8.80
2017,04,22,01,12,8.90
2017,04,22,01,13,8.90
2017,04,22,01,14,9.00
2017,04,22,01,15,9.00
2017,04,22,01,16,9.10
2017,04,22,01,17,9.10
2017,04,22,01,18,9.10
2017,04,22,01,19,9.00
2017,04,22,01,20,9.00
2017,04,22,01,21,8.90
2017,04,22,01,22,8.90
2017,04,22,01,23,8.80
2017,04,22,01,24,8.80
2017,04,22,01,25,8.80
2017,04,22,01,26,8.80
2017,04,22,01,27,8.80
2017,04,22,01,28,8.80
2017,04,22,01,29,8.80
2017,04,22,01,30,8.80
2017,04,22,01,31,8.80
2017,04,22,01,32,8.90
2017,04,22,01,33,8.90
2017,04,22,01,34,8.90
2017,04,22,01,35,8.90
2017,04,22,01,36,8.90
2017,04,22,01,37,8.90
2017,04,22,01,38,8.90
2017,04,22,01,39,8.90
2017,04,22,01,40,8.90
2017,04,22,01,41,8.80
2017,04,22,01,42,8.80
2017,04,22,01,43,8.80
2017,04,22,01,44,8.80
2017,04,22,01,45,8.80
2017,04,22,01,46,8.90
2017,04,22,01,47,8.90
2017,04,22,01,48,9.00
2017,04,22,01,49,9.20
2017,04,22,01,50,9.40
2017,04,22,01,51,9.70
2017,04,22,01,52,9.90
2017,04,22,01,53,10.10
2017,04,22,01,54,10.30
2017,04,22,01,55,10.40
2017,04,22,01,56,10.60
2017,04,22,01,57,10.70
2017,04,22,01,58,10.80
2017,04,22,01,59,10.90
2017,04,22,02,00,11.00
2017,04,22,02,01,11.10
2017,04,22,02,02,11.20
2017,04,22,02,03,11.30
2017,04,22,02,04,11.30
2017,04,22,02,05,11.30
2017,04,22,02,06,11.30
2017,04,22,02,07,11.30
2017,04,22,02,08,11.20
2017,04,22,02,09,11.20
2017,04,22,02,10,11.10
2017,04,22,02,11,11.10
2017,04,22,02,12,11.00
2017,04,22,02,13,11.00
2017,04,22,02,14,11.00
2017,04,22,02,15,11.00
2017,04,22,02,16,11.00
2017,04,22,02,17,10.90
2017,04,22,02,18,10.90
2017,04,22,02,19,10.90
2017,04,22,02,20,10.90
2017,04,22,02,21,10.90
2017,04,22,02,22,11.00
2017,04,22,02,23,11.00
2017,04,22,02,24,11.20
2017,04,22,02,25,11.20
2017,04,22,02,26,11.30
2017,04,22,02,27,11.30
2017,04,22,02,28,11.30
2017,04,22,02,29,11.30
2017,04,22,02,30,11.30
2017,04,22,02,31,11.20
2017,04,22,02,32,11.20
2017,04,22,02,33,11.20
2017,04,22,02,34,11.20
2017,04,22,02,35,11.30
2017,04,22,02,36,11.40
2017,04,22,02,37,11.40
2017,04,22,02,38,11.50
2017,04,22,02,39,11.50
2017,04,22,02,40,11.40
2017,04,22,02,41,11.40
2017,04,22,02,42,11.40
2017,04,22,02,43,11.40
2017,04,22,02,44,11.30
2017,04,22,02,45,11.30
2017,04,22,02,46,11.30
2017,04,22,02,47,11.30
2017,04,22,02,48,11.30
2017,04,22,02,49,11.30
2017,04,22,02,50,11.30
2017,04,22,02,51,11.30
2017,04,22,02,52,11.30
2017,04,22,02,53,11.30
2017,04,22,02,54,11.30
2017,04,22,02,55,11.30
2017,04,22,02,56,11.30
2017,04,22,02,57,11.30
2017,04,22,02,58,11.30
2017,04,22,02,59,11.30
2017,04,22,03,00,11.30
2017,04,22,03,01,11.40
2017,04,22,03,02,11.40
2017,04,22,03,03,11.40
2017,04,22,03,04,11.40
2017,04,22,03,05,11.50
2017,04,22,03,06,11.50
2017,04,22,03,07,11.50
2017,04,22,03,08,11.50
2017,04,22,03,09,11.50
2017,04,22,03,10,11.50
2017,04,22,03,11,11.50
2017,04,22,03,12,11.50
2017,04,22,03,13,11.50
2017,04,22,03,14,11.50
2017,04,22,03,15,11.50
2017,04,22,03,16,11.60
2017,04,22,03,17,11.60
2017,04,22,03,18,11.60
2017,04,22,03,19,11.60
2017,04,22,03,20,11.60
2017,04,22,03,21,11.60
2017,04,22,03,22,11.50
2017,04,22,03,23,11.50
2017,04,22,03,24,11.50
2017,04,22,03,25,11.50
2017,04,22,03,26,11.40
2017,04,22,03,27,11.40
2017,04,22,03,28,11.40
2017,04,22,03,29,11.40
2017,04,22,03,30,11.40
2017,04,22,03,31,11.40
2017,04,22,03,32,11.40
2017,04,22,03,33,11.40
2017,04,22,03,34,11.40
2017,04,22,03,35,11.40
2017,04,22,03,36,11.40
2017,04,22,03,37,11.40
2017,04,22,03,38,11.40
2017,04,22,03,39,11.40
2017,04,22,03,40,11.30
2017,04,22,03,41,11.30
2017,04,22,03,42,11.30
2017,04,22,03,43,11.30
2017,04,22,03,44,11.30
2017,04,22,03,45,11.30
2017,04,22,03,46,11.30
2017,04,22,03,47,11.30
2017,04,22,03,48,11.30
2017,04,22,03,49,11.20
2017,04,22,03,50,11.20
2017,04,22,03,51,11.20
2017,04,22,03,52,11.20
2017,04,22,03,53,11.10
2017,04,22,03,54,11.10
2017,04,22,03,55,11.10
2017,04,22,03,56,11.00
2017,04,22,03,57,11.00
2017,04,22,03,58,10.90
2017,04,22,03,59,10.80
2017,04,22,04,00,10.70
2017,04,22,04,01,10.70
2017,04,22,04,02,10.60
2017,04,22,04,03,10.50
2017,04,22,04,04,10.40
2017,04,22,04,05,10.40
2017,04,22,04,06,10.30
2017,04,22,04,07,10.30
2017,04,22,04,08,10.20
2017,04,22,04,09,10.20
2017,04,22,04,10,10.10
2017,04,22,04,11,10.10
2017,04,22,04,12,10.10
2017,04,22,04,13,10.10
2017,04,22,04,14,10.20
2017,04,22,04,15,10.30
2017,04,22,04,16,10.40
2017,04,22,04,17,10.50
2017,04,22,04,18,10.50
2017,04,22,04,19,10.50
2017,04,22,04,20,10.60
2017,04,22,04,21,10.70
2017,04,22,04,22,10.70
2017,04,22,04,23,10.80
2017,04,22,04,24,10.80
2017,04,22,04,25,10.90
2017,04,22,04,26,10.90
2017,04,22,04,27,11.00
2017,04,22,04,28,11.10
2017,04,22,04,29,11.20
2017,04,22,04,30,11.40
2017,04,22,04,31,11.50
2017,04,22,04,32,11.50
2017,04,22,04,33,11.60
2017,04,22,04,34,11.70
2017,04,22,04,35,11.70
2017,04,22,04,36,11.80
2017,04,22,04,37,11.80
2017,04,22,04,38,11.80
2017,04,22,04,39,11.80
2017,04,22,04,40,11.80
2017,04,22,04,41,11.80
2017,04,22,04,42,11.80
2017,04,22,04,43,11.80
2017,04,22,04,44,11.70
2017,04,22,04,45,11.70
2017,04,22,04,46,11.70
2017,04,22,04,47,11.60
2017,04,22,04,48,11.60
2017,04,22,04,49,11.60
2017,04,22,04,50,11.50
2017,04,22,04,51,11.50
2017,04,22,04,52,11.50
2017,04,22,04,53,11.50
2017,04,22,04,54,11.50
2017,04,22,04,55,11.50
2017,04,22,04,56,11.60
2017,04,22,04,57,11.60
2017,04,22,04,58,11.60
2017,04,22,04,59,11.70
2017,04,22,05,00,11.80
2017,04,22,05,01,11.90
2017,04,22,05,02,12.00
2017,04,22,05,03,12.00
2017,04,22,05,04,12.00
2017,04,22,05,05,12.00
2017,04,22,05,06,12.00
2017,04,22,05,07,12.00
2017,04,22,05,08,12.00
2017,04,22,05,09,12.00
2017,04,22,05,10,12.00
2017,04,22,05,11,12.00
2017,04,22,05,12,12.00
2017,04,22,05,13,12.00
2017,04,22,05,14,12.00
2017,04,22,05,15,12.10
2017,04,22,05,16,12.10
2017,04,22,05,17,12.10
2017,04,22,05,18,12.10
2017,04,22,05,19,12.10
2017,04,22,05,20,12.10
2017,04,22,05,21,12.10
2017,04,22,05,22,12.00
2017,04,22,05,23,11.90
2017,04,22,05,24,11.90
2017,04,22,05,25,11.80
2017,04,22,05,26,11.80
2017,04,22,05,27,11.80
2017,04,22,05,28,11.80
2017,04,22,05,29,11.90
2017,04,22,05,30,11.90
2017,04,22,05,31,11.90
2017,04,22,05,32,11.90
2017,04,22,05,33,11.90
2017,04,22,05,34,11.90
2017,04,22,05,35,11.90
2017,04,22,05,36,11.90
2017,04,22,05,37,12.00
2017,04,22,05,38,12.00
2017,04,22,05,39,12.10
2017,04,22,05,40,12.10
2017,04,22,05,41,12.20
2017,04,22,05,42,12.20
2017,04,22,05,43,12.20
2017,04,22,05,44,12.20
2017,04,22,05,45,12.20
2017,04,22,05,46,12.30
2017,04,22,05,47,12.30
2017,04,22,05,48,12.30
2017,04,22,05,49,12.30
2017,04,22,05,50,12.30
2017,04,22,05,51,12.30
2017,04,22,05,52,12.30
2017,04,22,05,53,12.20
2017,04,22,05,54,12.20
2017,04,22,05,55,12.20
2017,04,22,05,56,12.20
2017,04,22,05,57,12.20
2017,04,22,05,58,12.20
2017,04,22,05,59,12.10
2017,04,22,06,00,12.00
2017,04,22,06,01,11.80
2017,04,22,06,02,11.50
2017,04,22,06,03,11.20
2017,04,22,06,04,10.90
2017,04,22,06,05,10.60
2017,04,22,06,06,10.30
2017,04,22,06,07,10.10
2017,04,22,06,08,9.90
2017,04,22,06,09,9.80
2017,04,22,06,10,9.70
2017,04,22,06,11,9.60
2017,04,22,06,12,9.50
2017,04,22,06,13,9.40
2017,04,22,06,14,9.30
2017,04,22,06,15,9.20
2017,04,22,06,16,9.20
2017,04,22,06,17,9.10
2017,04,22,06,18,9.00
2017,04,22,06,19,9.00
2017,04,22,06,20,8.90
2017,04,22,06,21,8.90
2017,04,22,06,22,8.90
2017,04,22,06,23,8.80
2017,04,22,06,24,8.80
2017,04,22,06,25,8.80
2017,04,22,06,26,8.80
2017,04,22,06,27,8.80
2017,04,22,06,28,8.80
2017,04,22,06,29,8.90
2017,04,22,06,30,8.90
2017,04,22,06,31,9.00
2017,04,22,06,32,9.10
2017,04,22,06,33,9.10
2017,04,22,06,34,9.10
2017,04,22,06,35,9.10
2017,04,22,06,36,9.10
2017,04,22,06,37,9.10
2017,04,22,06,38,9.10
2017,04,22,06,39,9.10
2017,04,22,06,40,9.20
2017,04,22,06,41,9.30
2017,04,22,06,42,9.20
2017,04,22,06,43,9.20
2017,04,22,06,44,9.30
2017,04,22,06,45,9.30
2017,04,22,06,46,9.30
2017,04,22,06,47,9.30
2017,04,22,06,48,9.30
2017,04,22,06,49,9.20
2017,04,22,06,50,9.10
2017,04,22,06,51,9.00
2017,04,22,06,52,8.90
2017,04,22,06,53,8.80
2017,04,22,06,54,8.80
2017,04,22,06,55,8.70
2017,04,22,06,56,8.70
2017,04,22,06,57,8.60
2017,04,22,06,58,8.60
2017,04,22,06,59,8.70
2017,04,22,07,00,8.70
2017,04,22,07,01,8.80
2017,04,22,07,02,8.80
2017,04,22,07,03,8.80
2017,04,22,07,04,8.90
2017,04,22,07,05,8.90
2017,04,22,07,06,9.00
2017,04,22,07,07,9.00
2017,04,22,07,08,9.20
2017,04,22,07,09,9.30
2017,04,22,07,10,9.50
2017,04,22,07,11,9.80
2017,04,22,07,12,10.20
2017,04,22,07,13,10.50
2017,04,22,07,14,10.70
2017,04,22,07,15,10.80
2017,04,22,07,16,10.90
2017,04,22,07,17,10.90
2017,04,22,07,18,10.90
2017,04,22,07,19,10.90
2017,04,22,07,20,10.80
2017,04,22,07,21,10.80
2017,04,22,07,22,10.70
2017,04,22,07,23,10.60
2017,04,22,07,24,10.60
2017,04,22,07,25,10.60
2017,04,22,07,26,10.60
2017,04,22,07,27,10.70
2017,04,22,07,28,10.70
2017,04,22,07,29,10.70
2017,04,22,07,30,10.80
2017,04,22,07,31,10.80
2017,04,22,07,32,10.90
2017,04,22,07,33,11.00
2017,04,22,07,34,11.10
2017,04,22,07,35,11.20
2017,04,22,07,36,11.20
2017,04,22,07,37,11.20
2017,04,22,07,38,11.30
2017,04,22,07,39,11.30
2017,04,22,07,40,11.30
2017,04,22,07,41,11.30
2017,04,22,07,42,11.30
2017,04,22,07,43,11.30
2017,04,22,07,44,11.10
2017,04,22,07,45,10.90
2017,04,22,07,46,10.80
2017,04,22,07,47,10.70
2017,04,22,07,48,10.60
2017,04,22,07,49,10.50
2017,04,22,07,50,10.40
2017,04,22,07,51,10.40
2017,04,22,07,52,10.40
2017,04,22,07,53,10.40
2017,04,22,07,54,10.40
2017,04,22,07,55,10.50
2017,04,22,07,56,10.50
2017,04,22,07,57,10.50
2017,04,22,07,58,10.60
2017,04,22,07,59,10.60
2017,04,22,08,00,10.70
2017,04,22,08,01,10.80
2017,04,22,08,02,11.00
2017,04,22,08,03,11.10
2017,04,22,08,04,11.20
2017,04,22,08,05,11.30
2017,04,22,08,06,11.50
2017,04,22,08,07,11.60
2017,04,22,08,08,11.70
2017,04,22,08,09,11.90
2017,04,22,08,10,12.00
2017,04,22,08,11,12.20
2017,04,22,08,12,12.30
2017,04,22,08,13,12.40
2017,04,22,08,14,12.60
2017,04,22,08,15,12.80
2017,04,22,08,16,13.00
2017,04,22,08,17,13.20
2017,04,22,08,18,13.30
2017,04,22,08,19,13.50
2017,04,22,08,20,13.60
2017,04,22,08,21,13.80
2017,04,22,08,22,13.90
2017,04,22,08,23,13.90
2017,04,22,08,24,13.90
2017,04,22,08,25,13.90
2017,04,22,08,26,13.90
2017,04,22,08,27,13.80
2017,04,22,08,28,13.70
2017,04,22,08,29,13.70
2017,04,22,08,30,13.60
2017,04,22,08,31,13.60
2017,04,22,08,32,13.60
2017,04,22,08,33,13.50
2017,04,22,08,34,13.50
2017,04,22,08,35,13.40
2017,04,22,08,36,13.30
2017,04,22,08,37,13.30
2017,04,22,08,38,13.20
2017,04,22,08,39,13.20
2017,04,22,08,40,13.20
2017,04,22,08,41,13.10
2017,04,22,08,42,13.10
2017,04,22,08,43,13.20
2017,04,22,08,44,13.20
2017,04,22,08,45,13.30
2017,04,22,08,46,13.30
2017,04,22,08,47,13.30
2017,04,22,08,48,13.40
2017,04,22,08,49,13.40
2017,04,22,08,50,13.50
2017,04,22,08,51,13.50
2017,04,22,08,52,13.50
2017,04,22,08,53,13.60
2017,04,22,08,54,13.60
2017,04,22,08,55,13.60
2017,04,22,08,56,13.60
2017,04,22,08,57,13.60
2017,04,22,08,58,13.70
2017,04,22,08,59,13.70
2017,04,22,09,00,13.70
2017,04,22,09,01,13.80
2017,04,22,09,02,13.80
2017,04,22,09,03,13.80
2017,04,22,09,04,13.80
2017,04,22,09,05,13.80
2017,04,22,09,06,13.80
2017,04,22,09,07,13.80
2017,04,22,09,08,13.80
2017,04,22,09,09,13.80
2017,04,22,09,10,13.80
2017,04,22,09,11,13.90
2017,04,22,09,12,13.90
2017,04,22,09,13,13.90
2017,04,22,09,14,13.90
2017,04,22,09,15,13.90
2017,04,22,09,16,13.90
2017,04,22,09,17,13.90
2017,04,22,09,18,13.90
2017,04,22,09,19,14.00
2017,04,22,09,20,14.00
2017,04,22,09,21,14.00
2017,04,22,09,22,14.00
2017,04,22,09,23,14.00
2017,04,22,09,24,14.10
2017,04,22,09,25,14.10
2017,04,22,09,26,14.10
2017,04,22,09,27,14.10
2017,04,22,09,28,14.10
2017,04,22,09,29,14.10
2017,04,22,09,30,14.10
2017,04,22,09,31,14.10
2017,04,22,09,32,14.10
2017,04,22,09,33,14.10
2017,04,22,09,34,14.10
2017,04,22,09,35,14.10
2017,04,22,09,36,14.10
2017,04,22,09,37,14.10
2017,04,22,09,38,14.10
2017,04,22,09,39,14.10
2017,04,22,09,40,14.10
2017,04,22,09,41,14.10
2017,04,22,09,42,14.10
2017,04,22,09,43,14.20
2017,04,22,09,44,14.20
2017,04,22,09,45,14.20
2017,04,22,09,46,14.20
2017,04,22,09,47,14.20
2017,04,22,09,48,14.20
2017,04,22,09,49,14.30
2017,04,22,09,50,14.30
2017,04,22,09,51,14.30
2017,04,22,09,52,14.40
2017,04,22,09,53,14.40
2017,04,22,09,54,14.40
2017,04,22,09,55,14.50
2017,04,22,09,56,14.50
2017,04,22,09,57,14.50
2017,04,22,09,58,14.50
2017,04,22,09,59,14.50
2017,04,22,10,00,14.50
2017,04,22,10,01,14.50
2017,04,22,10,02,14.50
2017,04,22,10,03,14.50
2017,04,22,10,04,14.40
2017,04,22,10,05,14.40
2017,04,22,10,06,14.40
2017,04,22,10,07,14.40
2017,04,22,10,08,14.40
2017,04,22,10,09,14.40
2017,04,22,10,10,14.40
2017,04,22,10,11,14.30
2017,04,22,10,12,14.30
2017,04,22,10,13,14.30
2017,04,22,10,14,14.30
2017,04,22,10,15,14.30
2017,04,22,10,16,14.30
2017,04,22,10,17,14.30
2017,04,22,10,18,14.30
2017,04,22,10,19,14.30
2017,04,22,10,20,14.30
2017,04,22,10,21,14.30
2017,04,22,10,22,14.30
2017,04,22,10,23,14.30
2017,04,22,10,24,14.30
2017,04,22,10,25,14.30
2017,04,22,10,26,14.30
2017,04,22,10,27,14.30
2017,04,22,10,28,14.30
2017,04,22,10,29,14.30
2017,04,22,10,30,14.30
2017,04,22,10,31,14.30
2017,04,22,10,32,14.20
2017,04,22,10,33,14.20
2017,04,22,10,34,14.20
2017,04,22,10,35,14.20
2017,04,22,10,36,14.20
2017,04,22,10,37,14.20
2017,04,22,10,38,14.20
2017,04,22,10,39,14.20
2017,04,22,10,40,14.20
2017,04,22,10,41,14.20
2017,04,22,10,42,14.20
2017,04,22,10,43,14.20
2017,04,22,10,44,14.20
2017,04,22,10,45,14.20
2017,04,22,10,46,14.10
2017,04,22,10,47,14.10
2017,04,22,10,48,14.00
2017,04,22,10,49,14.00
2017,04,22,10,50,13.90
2017,04,22,10,51,13.90
2017,04,22,10,52,13.80
2017,04,22,10,53,13.80
2017,04,22,10,54,13.80
2017,04,22,10,55,13.70
2017,04,22,10,56,13.70
2017,04,22,10,57,13.70
2017,04,22,10,58,13.60
2017,04,22,10,59,13.60
2017,04,22,11,00,13.60
2017,04,22,11,01,13.60
2017,04,22,11,02,13.50
2017,04,22,11,03,13.40
2017,04,22,11,04,13.40
2017,04,22,11,05,13.40
2017,04,22,11,06,13.30
2017,04,22,11,07,13.30
2017,04,22,11,08,13.30
2017,04,22,11,09,13.20
2017,04,22,11,10,13.20
2017,04,22,11,11,13.20
2017,04,22,11,12,13.10
2017,04,22,11,13,13.10
2017,04,22,11,14,13.10
2017,04,22,11,15,13.10
2017,04,22,11,16,13.00
2017,04,22,11,17,13.00
2017,04,22,11,18,12.90
2017,04,22,11,19,12.90
2017,04,22,11,20,12.90
2017,04,22,11,21,12.90
2017,04,22,11,22,12.80
2017,04,22,11,23,12.80
2017,04,22,11,24,12.70
2017,04,22,11,25,12.70
2017,04,22,11,26,12.60
2017,04,22,11,27,12.60
2017,04,22,11,28,12.50
2017,04,22,11,29,12.50
2017,04,22,11,30,12.50
2017,04,22,11,31,12.40
2017,04,22,11,32,12.40
2017,04,22,11,33,12.40
2017,04,22,11,34,12.30
2017,04,22,11,35,12.30
2017,04,22,11,36,12.30
2017,04,22,11,37,12.20
2017,04,22,11,38,12.20
2017,04,22,11,39,12.20
2017,04,22,11,40,12.20
2017,04,22,11,41,12.10
2017,04,22,11,42,12.10
2017,04,22,11,43,12.00
2017,04,22,11,44,12.00
2017,04,22,11,45,11.90
2017,04,22,11,46,11.80
2017,04,22,11,47,11.80
2017,04,22,11,48,11.70
2017,04,22,11,49,11.70
2017,04,22,11,50,11.70
2017,04,22,11,51,11.60
2017,04,22,11,52,11.60
2017,04,22,11,53,11.60
2017,04,22,11,54,11.50
2017,04,22,11,55,11.40
2017,04,22,11,56,11.40
2017,04,22,11,57,11.40
2017,04,22,11,58,11.30
2017,04,22,11,59,11.30
2017,04,22,12,00,11.20
2017,04,22,12,01,11.20
2017,04,22,12,02,11.10
2017,04,22,12,03,11.10
2017,04,22,12,04,11.10
2017,04,22,12,05,11.00
2017,04,22,12,06,11.00
2017,04,22,12,07,11.00
2017,04,22,12,08,11.00
2017,04,22,12,09,10.90
2017,04,22,12,10,10.90
2017,04,22,12,11,10.90
2017,04,22,12,12,10.90
2017,04,22,12,13,10.90
2017,04,22,12,14,10.90
2017,04,22,12,15,10.90
2017,04,22,12,16,10.90
2017,04,22,12,17,10.80
2017,04,22,12,18,10.80
2017,04,22,12,19,10.80
2017,04,22,12,20,10.80
2017,04,22,12,21,10.80
2017,04,22,12,22,10.70
2017,04,22,12,23,10.70
2017,04,22,12,24,10.70
2017,04,22,12,25,10.60
2017,04,22,12,26,10.60
2017,04,22,12,27,10.60
2017,04,22,12,28,10.50
2017,04,22,12,29,10.50
2017,04,22,12,30,10.40
2017,04,22,12,31,10.40
2017,04,22,12,32,10.40
2017,04,22,12,33,10.40
2017,04,22,12,34,10.30
2017,04,22,12,35,10.30
2017,04,22,12,36,10.30
2017,04,22,12,37,10.30
2017,04,22,12,38,10.30
2017,04,22,12,39,10.30
2017,04,22,12,40,10.30
2017,04,22,12,41,10.30
2017,04,22,12,42,10.30
2017,04,22,12,43,10.30
2017,04,22,12,44,10.20
2017,04,22,12,45,10.20
2017,04,22,12,46,10.20
2017,04,22,12,47,10.20
2017,04,22,12,48,10.20
2017,04,22,12,49,10.20
2017,04,22,12,50,10.20
2017,04,22,12,51,10.20
2017,04,22,12,52,10.20
2017,04,22,12,53,10.10
2017,04,22,12,54,10.10
2017,04,22,12,55,10.10
2017,04,22,12,56,10.10
2017,04,22,12,57,10.10
2017,04,22,12,58,10.10
2017,04,22,12,59,10.10
2017,04,22,13,00,10.10
2017,04,22,13,01,10.10
2017,04,22,13,02,10.10
2017,04,22,13,03,10.20
2017,04,22,13,04,10.20
2017,04,22,13,05,10.20
2017,04,22,13,06,10.20
2017,04,22,13,07,10.20
2017,04,22,13,08,10.20
2017,04,22,13,09,10.20
2017,04,22,13,10,10.20
2017,04,22,13,11,10.20
2017,04,22,13,12,10.20
2017,04,22,13,13,10.20
2017,04,22,13,14,10.20
2017,04,22,13,15,10.20
2017,04,22,13,16,10.20
2017,04,22,13,17,10.20
2017,04,22,13,18,10.20
2017,04,22,13,19,10.20
2017,04,22,13,20,10.20
2017,04,22,13,21,10.20
2017,04,22,13,22,10.20
2017,04,22,13,23,10.20
2017,04,22,13,24,10.20
2017,04,22,13,25,10.20
2017,04,22,13,26,10.20
2017,04,22,13,27,10.20
2017,04,22,13,28,10.20
2017,04,22,13,29,10.20
2017,04,22,13,30,10.20
2017,04,22,13,31,10.20
2017,04,22,13,32,10.20
2017,04,22,13,33,10.20
2017,04,22,13,34,10.20
2017,04,22,13,35,10.20
2017,04,22,13,36,10.20
2017,04,22,13,37,10.20
2017,04,22,13,38,10.20
2017,04,22,13,39,10.20
2017,04,22,13,40,10.20
2017,04,22,13,41,10.20
2017,04,22,13,42,10.20
2017,04,22,13,43,10.20
2017,04,22,13,44,10.20
2017,04,22,13,45,10.20
2017,04,22,13,46,10.20
2017,04,22,13,47,10.20
2017,04,22,13,48,10.20
2017,04,22,13,49,10.30
2017,04,22,13,50,10.30
2017,04,22,13,51,10.30
2017,04,22,13,52,10.40
2017,04,22,13,53,10.40
2017,04,22,13,54,10.40
2017,04,22,13,55,10.50
2017,04,22,13,56,10.50
2017,04,22,13,57,10.50
2017,04,22,13,58,10.50
2017,04,22,13,59,10.40
2017,04,22,14,00,10.30
2017,04,22,14,01,10.20
2017,04,22,14,02,10.10
2017,04,22,14,03,10.00
2017,04,22,14,04,10.00
2017,04,22,14,05,9.90
2017,04,22,14,06,9.90
2017,04,22,14,07,9.90
2017,04,22,14,08,9.90
2017,04,22,14,09,10.00
2017,04,22,14,10,10.00
2017,04,22,14,11,10.00
2017,04,22,14,12,10.10
2017,04,22,14,13,10.10
2017,04,22,14,14,10.10
2017,04,22,14,15,10.20
2017,04,22,14,16,10.30
2017,04,22,14,17,10.30
2017,04,22,14,18,10.30
2017,04,22,14,19,10.40
2017,04,22,14,20,10.50
2017,04,22,14,21,10.50
2017,04,22,14,22,10.60
2017,04,22,14,23,10.60
2017,04,22,14,24,10.70
2017,04,22,14,25,10.70
2017,04,22,14,26,10.70
2017,04,22,14,27,10.80
2017,04,22,14,28,10.80
2017,04,22,14,29,10.80
2017,04,22,14,30,10.80
2017,04,22,14,31,10.80
2017,04,22,14,32,10.80
2017,04,22,14,33,10.80
2017,04,22,14,34,10.80
2017,04,22,14,35,10.80
2017,04,22,14,36,10.80
2017,04,22,14,37,10.80
2017,04,22,14,38,10.80
2017,04,22,14,39,10.80
2017,04,22,14,40,10.80
2017,04,22,14,41,10.80
2017,04,22,14,42,10.80
2017,04,22,14,43,10.90
2017,04,22,14,44,10.90
2017,04,22,14,45,10.90
2017,04,22,14,46,10.90
2017,04,22,14,47,10.90
2017,04,22,14,48,10.90
2017,04,22,14,49,10.90
2017,04,22,14,50,10.90
2017,04,22,14,51,10.90
2017,04,22,14,52,10.90
2017,04,22,14,53,10.90
2017,04,22,14,54,10.90
2017,04,22,14,55,10.90
2017,04,22,14,56,10.90
2017,04,22,14,57,10.90
2017,04,22,14,58,10.90
2017,04,22,14,59,10.90
2017,04,22,15,00,10.90
2017,04,22,15,01,10.90
2017,04,22,15,02,11.00
2017,04,22,15,03,11.00
2017,04,22,15,04,11.00
2017,04,22,15,05,11.00
2017,04,22,15,06,11.00
2017,04,22,15,07,11.00
2017,04,22,15,08,11.00
2017,04,22,15,09,11.00
2017,04,22,15,10,11.10
2017,04,22,15,11,11.10
2017,04,22,15,12,11.10
2017,04,22,15,13,11.10
2017,04,22,15,14,11.10
2017,04,22,15,15,11.00
2017,04,22,15,16,11.00
2017,04,22,15,17,11.00
2017,04,22,15,18,10.90
2017,04,22,15,19,10.90
2017,04,22,15,20,10.90
2017,04,22,15,21,10.90
2017,04,22,15,22,10.90
2017,04,22,15,23,10.80
2017,04,22,15,24,10.80
2017,04,22,15,25,10.80
2017,04,22,15,26,10.80
2017,04,22,15,27,10.80
2017,04,22,15,28,10.70
2017,04,22,15,29,10.70
2017,04,22,15,30,10.70
2017,04,22,15,31,10.70
2017,04,22,15,32,10.70
2017,04,22,15,33,10.70
2017,04,22,15,34,10.70
2017,04,22,15,35,10.70
2017,04,22,15,36,10.70
2017,04,22,15,37,10.70
2017,04,22,15,38,10.70
2017,04,22,15,39,10.70
2017,04,22,15,40,10.70
2017,04,22,15,41,10.70
2017,04,22,15,42,10.70
2017,04,22,15,43,10.70
2017,04,22,15,44,10.70
2017,04,22,15,45,10.70
2017,04,22,15,46,10.70
2017,04,22,15,47,10.80
2017,04,22,15,48,10.80
2017,04,22,15,49,10.70
2017,04,22,15,50,10.70
2017,04,22,15,51,10.70
2017,04,22,15,52,10.70
2017,04,22,15,53,10.70
2017,04,22,15,54,10.70
2017,04,22,15,55,10.70
2017,04,22,15,56,10.70
2017,04,22,15,57,10.70
2017,04,22,15,58,10.70
2017,04,22,15,59,10.70
2017,04,22,16,00,10.70
2017,04,22,16,01,10.70
2017,04,22,16,02,10.70
2017,04,22,16,03,10.70
2017,04,22,16,04,10.70
2017,04,22,16,05,10.70
2017,04,22,16,06,10.70
2017,04,22,16,07,10.60
2017,04,22,16,08,10.60
2017,04,22,16,09,10.60
2017,04,22,16,10,10.60
2017,04,22,16,11,10.60
2017,04,22,16,12,10.60
2017,04,22,16,13,10.60
2017,04,22,16,14,10.60
2017,04,22,16,15,10.60
2017,04,22,16,16,10.60
2017,04,22,16,17,10.60
2017,04,22,16,18,10.60
2017,04,22,16,19,10.60
2017,04,22,16,20,10.60
2017,04,22,16,21,10.60
2017,04,22,16,22,10.60
2017,04,22,16,23,10.60
2017,04,22,16,24,10.60
2017,04,22,16,25,10.60
2017,04,22,16,26,10.60
2017,04,22,16,27,10.60
2017,04,22,16,28,10.60
2017,04,22,16,29,10.50
2017,04,22,16,30,10.50
2017,04,22,16,31,10.50
2017,04,22,16,32,10.40
2017,04,22,16,33,10.40
2017,04,22,16,34,10.30
2017,04,22,16,35,10.30
2017,04,22,16,36,10.30
2017,04,22,16,37,10.20
2017,04,22,16,38,10.20
2017,04,22,16,39,10.20
2017,04,22,16,40,10.20
2017,04,22,16,41,10.20
2017,04,22,16,42,10.20
2017,04,22,16,43,10.20
2017,04,22,16,44,10.30
2017,04,22,16,45,10.30
2017,04,22,16,46,10.20
2017,04,22,16,47,10.20
2017,04,22,16,48,10.20
2017,04,22,16,49,10.20
2017,04,22,16,50,10.20
2017,04,22,16,51,10.20
2017,04,22,16,52,10.20
2017,04,22,16,53,10.20
2017,04,22,16,54,10.20
2017,04,22,16,55,10.20
2017,04,22,16,56,10.30
2017,04,22,16,57,10.20
2017,04,22,16,58,10.20
2017,04,22,16,59,10.20
2017,04,22,17,00,10.20
2017,04,22,17,01,10.20
2017,04,22,17,02,10.20
2017,04,22,17,03,10.20
2017,04,22,17,04,10.20
2017,04,22,17,05,10.20
2017,04,22,17,06,10.20
2017,04,22,17,07,10.20
2017,04,22,17,08,10.20
2017,04,22,17,09,10.20
2017,04,22,17,10,10.20
2017,04,22,17,11,10.20
2017,04,22,17,12,10.20
2017,04,22,17,13,10.20
2017,04,22,17,14,10.20
2017,04,22,17,15,10.20
2017,04,22,17,16,10.20
2017,04,22,17,17,10.20
2017,04,22,17,18,10.20
2017,04,22,17,19,10.20
2017,04,22,17,20,10.20
2017,04,22,17,21,10.20
2017,04,22,17,22,10.20
2017,04,22,17,23,10.10
2017,04,22,17,24,10.10
2017,04,22,17,25,10.10
2017,04,22,17,26,10.10
2017,04,22,17,27,10.10